Regional Weather Roundup
Issued by NWS

Home | Current Version | Previous Version | Graphics & Text | Print | Product List | Glossary On
Versions: 1 2 3 4 5 6 7 8 9 10 11 12 13 14 15 16 17 18 19 20 21 22 23 24 25 26 27 28 29 30 31 32 33 34 35 36 37 38 39 40 41 42 43 44 45 46 47 48 49 50
000
ASUS43 KLOT 040921
RWRIL

ILLINOIS REGIONAL WEATHER ROUNDUP
NATIONAL WEATHER SERVICE CHICAGO/ROMEOVILLE IL
400 AM CDT TUE AUG 04 2015

NOTE: "FAIR" INDICATES FEW OR NO CLOUDS BELOW 12,000 FEET WITH NO
SIGNIFICANT WEATHER AND/OR OBSTRUCTIONS TO VISIBILITY.

* THESE STATIONS ARE NOT UNDER NWS QUALITY CONTROL. THEY ALSO MAY NOT
  REPORT WEATHER SUCH AS PRECIPITATION OR FOG.

ILZ001-002-007-009-015-016-024-041000-
NORTHWEST ILLINOIS

CITY           SKY/WX    TMP DP  RH WIND       PRES   REMARKS
MOLINE         CLEAR     59  55  87 CALM      29.95R
STERLING*      CLEAR     57  54  88 SW5       29.92S
SAVANNA*       CLEAR     56  55  94 CALM      29.94S
$$

ILZ003-004-008-010-011-017-018-041000-
NORTH CENTRAL ILLINOIS

CITY           SKY/WX    TMP DP  RH WIND       PRES   REMARKS
ROCKFORD       CLEAR     59  55  87 CALM      29.95R
FREEPORT*      CLEAR     55  52  90 CALM      29.96S
ROCHELLE*      CLEAR     53  52  97 CALM      29.94S
DE KALB*       CLEAR     60  55  83 W3        29.94S
PERU*          CLEAR     60  55  84 W6        29.95S
$$

ILZ005-006-012>014-019>023-041000-
NORTHEAST ILLINOIS

CITY           SKY/WX    TMP DP  RH WIND       PRES   REMARKS
CHICAGO-OHARE  CLEAR     63  55  75 W6        29.92R
CHICAGO-MIDWAY CLEAR     66  55  67 W3        29.92R
AURORA         CLEAR     56  52  86 CALM      29.94R
LANSING*       CLEAR     59  55  84 CALM      29.93R
JOLIET*        CLEAR     63  57  82 CALM      29.93S
WAUKEGAN       CLEAR     60  55  83 W3        29.91R
DUPAGE AIRPORT CLEAR     59  55  87 CALM      29.93R
KANKAKEE*      CLEAR     60  57  88 W5        29.94S
WHEELING       CLEAR     63  54  72 CALM      29.93R
MORRIS*        CLEAR     58  55  91 W5        29.93R
ROMEOVILLE*    CLEAR     58  55  89 CALM      29.93R
NORTHERLY ISL    N/A     69  55  60 W5          N/A
$$

LMZ740>746-041000-
SOUTHERN LAKE MICHIGAN

STATION/POSITION SKY/WX   TEMP    WIND        PRES    VSBY  WAVE
                          AIR SEA DIR/SP/G                  HT/PER
                          (F)     (DEG/KT/KT) (MB)    (MI)  (FT/S)
HARRISON CRIB              70     290/  9/ 11   N/A
BURNHAM HARBOR             69     270/  4/  7   N/A
CALUMET HARBOR             68     250/  3/  5   N/A
BURNS HARBOR               68     230/  5/  6 1013.2S
MICHIGAN CITY              65     180/  5/  6   N/A
MICHIGAN CITY 6N           72 73  310/  8/ 10   N/A           2/ 3
ST. JOSEPH                 71 73  350/ 10/ 12   N/A           2/ 3
$$

ILZ025>027-034>036-040-047-049-050-058-095>099-041000-
WEST-CENTRAL ILLINOIS

CITY           SKY/WX    TMP DP  RH WIND       PRES   REMARKS
QUINCY         MOCLDY    68  59  73 CALM      29.96R
GALESBURG*     CLEAR     57  56  98 CALM      29.96S
MACOMB*        MOCLDY    58  57  96 CALM      29.98R
JACKSONVILLE*  PTCLDY    66  63  91 CALM      29.96R
PITTSFIELD*    MOCLDY    69  65  86 CALM      29.98R
$$

ILZ028>032-037-038-041>044-048-051>054-059>061-041000-
CENTRAL ILLINOIS

CITY           SKY/WX    TMP DP  RH WIND       PRES   REMARKS
PONTIAC        CLEAR     60  58  92 CALM      29.95S
BLOOMINGTON    CLEAR     65  58  78 W3        29.97R
DECATUR        CLEAR     65  60  84 CALM      29.96R
PEORIA         CLEAR     63  58  83 CALM      29.96R
LACON*         CLEAR     58  56  91 CALM      29.94S
LINCOLN*       MOCLDY    64  60  86 CALM      29.96R
SPRINGFIELD    CLEAR     62  60  93 CALM      29.96R
TAYLORVILLE    MOCLDY    64  63  94 CALM      29.96R
$$

ILZ033-039-045-046-055>057-062-063-041000-
EAST-CENTRAL ILLINOIS

CITY           SKY/WX    TMP DP  RH WIND       PRES   REMARKS
CHAMPAIGN      CLEAR     58  56  93 S3        29.95S
DANVILLE*      CLEAR     55  54  98 CALM      29.92S
RANTOUL*       CLEAR     65  58  76 NW7       29.94S
MATTOON        PTCLDY    65  59  81 CALM      29.95R
PARIS*         CLEAR     58  57  98 CALM      29.96R
$$

ILZ079-100>102-041000-
SOUTHWEST ILLINOIS

CITY           SKY/WX    TMP DP  RH WIND       PRES   REMARKS
ALTON          CLOUDY    71  67  88 CALM      29.96S
BELLEVILLE     MOCLDY    73  71  95 N1        29.94R
CAHOKIA*       MOCLDY    75  68  78 CALM      29.94R
SPARTA*        PTCLDY    73  70  89 CALM      29.96R
$$

ILZ064>066-069>071-074>076-080>082-084>086-088>090-092>094-041000-
SOUTH-CENTRAL ILLINOIS

CITY           SKY/WX    TMP DP  RH WIND       PRES   REMARKS
CARBONDALE     PTCLDY    74  72  93 CALM      29.94R FOG
CAIRO*         CLEAR     72  72  99 CALM      29.93S
EFFINGHAM*     PTCLDY    68  63  82 CALM      29.97R
MARION         PTCLDY    75  73  94 CALM      29.95R
MT. VERNON     MOCLDY    70  64  83 CALM      29.96R
CENTRALIA*     MOCLDY    70  67  90 CALM      29.95S
SALEM*         MOCLDY    74  66  75 CALM      29.96R
METROPOLIS*    CLEAR     73  73 100 CALM      29.94S FOG
$$

ILZ067-068-072-073-078-083-087-091-041000-
SOUTHEAST ILLINOIS

CITY           SKY/WX    TMP DP  RH WIND       PRES   REMARKS
LAWRENCEVILLE  MOCLDY    72  66  81 CALM      29.95R
FLORA*         PTCLDY    69  66  92 CALM      29.96R
FAIRFIELD*     MOCLDY    71  68  91 N3        29.94R
HARRISBURG*    PTCLDY    71  71 100 CALM      29.96R
ROBINSON*      PTCLDY    66  64  94 CALM      29.96R
CARMI*         FOG       70  66  88 CALM      29.94S VSB 1
$$

ABBREVIATIONS USED IN REMARKS
   TC - TEMPERATURE IN CELSIUS
  WCI - WIND CHILL INDEX
   HX - HEAT INDEX
  VSB - VISIBILITY
$$



USA.gov is the U.S. government's official web portal to all federal, state and local government web resources and services.